Home   Weather   Ciudad del Este   Past weeks

Flag for Paraguay Past Weather in Ciudad del Este, Paraguay — Yesterday and Last 2 Weeks

Now
68 °F

Clear.


Feels Like: 68 °F
Forecast: 63 / 92 °F
Wind: No wind

Location: Foz Do Iguacu Aeroporto

Current Time: Dec 5, 2016 at 1:43:39 am

Latest Report: Dec 5, 2016 at 1:00 am


Visibility: 10 mi

Pressure: 29.71 "Hg

Humidity: 94%

Dew Point: 66 °F

Location of Ciudad del EsteLocation

Past Weather in Ciudad del Este — Graph

°F

Ciudad del Este Temperature Yesterday

Maximum temperature yesterday: 82 °F (at 2:00 pm)
Minimum temperature yesterday: 64 °F (at 5:00 am)
Average temperature yesterday: 73 °F

High & Low Weather Summary for the Past Weeks

 TemperatureHumidityPressure
High95 °F (Nov 24, 4:00 pm)100% (Nov 20, 2:00 am)30.07 "Hg (Nov 20, 2:00 am)
Low55 °F (Nov 20, 3:00 am)26% (Nov 24, 4:00 pm)29.71 "Hg (Dec 3, 8:00 am)
Average75 °F74%29.88 "Hg
* Reported Nov 20 12:00 am — Dec 5 12:00 am, Ciudad del Este, Weather by CustomWeather, © 2016

Note: Actual official high and low records may vary slightly from our data, if they occured in-between our weather recording intervals... More about our weather records

Advertising

Ciudad del Este Weather History for the Previous 24 Hours

Scroll right to see more
 ConditionsComfort  
Time TempWeatherWind HumidityBarometerVisibility
12:00 am
Mon, Dec 5
68 °FClear.3 mph100%29.74 "Hg10 mi
11:00 pm
Sun, Dec 4
68 °FClear.3 mph100%29.74 "Hg10 mi
10:00 pm70 °FClear.3 mph94%29.74 "Hg10 mi
9:00 pm73 °FClear.3 mph78%29.71 "Hg10 mi
8:00 pm72 °FClear.1 mph88%29.71 "Hg10 mi
7:00 pm77 °FSunny.2 mph69%29.71 "Hg10 mi
6:00 pm82 °FPassing clouds.5 mph58%29.71 "HgN/A
5:00 pm82 °FScattered clouds.5 mph58%29.71 "HgN/A
4:00 pm81 °FPartly sunny.5 mph62%29.71 "HgN/A
3:00 pm82 °FPartly sunny.5 mph58%29.71 "HgN/A
2:00 pm82 °FPartly sunny.5 mph58%29.74 "HgN/A
1:00 pm81 °FPartly sunny.5 mph66%29.77 "HgN/A
12:00 pm79 °FPartly sunny.5 mph70%29.80 "HgN/A
11:00 am77 °FPartly sunny.5 mph74%29.80 "HgN/A
10:00 am75 °FPartly sunny.3 mph78%29.80 "HgN/A
9:00 am75 °FPartly sunny.3 mph89%29.80 "HgN/A
8:00 am70 °FFog.2 mph100%29.80 "Hg3 mi
7:00 am68 °FFog.No wind100%29.77 "Hg1 mi
6:00 am66 °FFog.No wind100%N/A0 mi
5:00 am64 °FClear.No wind100%29.74 "HgN/A
4:00 am66 °FClear.No wind100%29.74 "Hg10 mi
3:00 am66 °FClear.No wind100%29.74 "Hg10 mi
2:00 am68 °FClear.2 mph100%29.74 "Hg10 mi
1:00 am68 °FClear.2 mph100%29.74 "Hg10 mi
Weather by CustomWeather, © 2016

See weather overviewHow to use our weather pages